CW9386 Weather Reports


Display with metric or nautical units.
time (UTC)temp
F
wind
direction
speed
MPH
gust
MPH
rain 1hr
in
rain 24hr
in
rain mn
in
humidity
%
barometer
mb
20260506123701 51 105 2.0 3.0 0.00 0.00 0.00 56 1015.5
20260506115659 50 101 0.0 2.0 0.00 0.00 0.00 58 1015.1
20260506114656 50 90 2.0 3.0 0.00 0.00 0.00 57 1015.0
20260506113704 50 80 1.0 3.0 0.00 0.00 0.00 57 1014.9
20260506112703 50 130 3.0 5.0 0.00 0.00 0.00 56 1014.8
20260506111700 51 13 0.0 2.0 0.00 0.00 0.00 55 1014.7
20260506110657 52 16 0.0 1.0 0.00 0.00 0.00 55 1014.7
20260506105704 52 17 0.0 0.0 0.00 0.00 0.00 54 1014.7
20260506104658 52 18 0.0 2.0 0.00 0.00 0.00 53 1014.6
20260506103657 53 18 0.0 3.0 0.00 0.00 0.00 53 1014.5
20260506102653 52 16 3.0 4.0 0.00 0.00 0.00 53 1014.3
20260506101648 52 17 3.0 4.0 0.00 0.00 0.00 54 1014.2
20260506095704 52 132 1.0 4.0 0.00 0.00 0.00 55 1014.8
20260506094655 52 148 1.0 4.0 0.00 0.00 0.00 55 1014.7
20260506093649 52 155 3.0 4.0 0.00 0.00 0.00 55 1014.6
20260506092644 52 108 1.0 3.0 0.00 0.00 0.00 53 1014.5
20260506091658 53 111 2.0 3.0 0.00 0.00 0.00 51 1014.4
20260506090654 54 153 1.0 2.0 0.00 0.00 0.00 50 1014.4
20260506085652 54 175 0.0 2.0 0.00 0.00 0.00 49 1014.4
20260506084645 54 179 0.0 4.0 0.00 0.00 0.00 48 1014.3
20260506083701 54 177 2.0 5.0 0.00 0.00 0.00 48 1014.2
20260506082651 55 173 2.0 5.0 0.00 0.00 0.00 47 1014.3
20260506080646 56 128 3.0 4.0 0.00 0.00 0.00 45 1014.3
20260506072659 58 192 1.0 3.0 0.00 0.00 0.00 39 1013.8
20260506071653 58 209 1.0 3.0 0.00 0.00 0.00 38 1013.7
20260506070657 59 196 2.0 4.0 0.00 0.00 0.00 37 1013.7
20260506061656 60 214 3.0 7.0 0.00 0.00 0.00 33 1013.3
20260506060647 61 190 2.0 5.0 0.00 0.00 0.00 33 1013.3
20260506050653 64 216 2.0 5.0 0.00 0.00 0.00 27 1012.6
20260506044643 65 223 5.0 9.0 0.00 0.00 0.00 26 1012.4
20260506043638 65 182 3.0 8.0 0.00 0.00 0.00 26 1012.4
20260506042657 66 201 3.0 7.0 0.00 0.00 0.00 26 1012.3
20260506041652 66 187 3.0 8.0 0.00 0.00 0.00 25 1012.2
20260506040647 66 210 5.0 9.0 0.00 0.00 0.00 24 1012.1
20260506035642 67 205 4.0 8.0 0.00 0.00 0.00 24 1011.9
20260506033654 67 210 3.0 7.0 0.00 0.00 0.00 25 1011.6
20260506032642 68 202 3.0 6.0 0.00 0.00 0.00 25 1011.3
20260506030642 69 209 3.0 5.0 0.00 0.00 0.00 24 1011.1
20260506025653 69 248 3.0 8.0 0.00 0.00 0.00 24 1010.9
20260506024648 69 244 3.0 8.0 0.00 0.00 0.00 23 1010.7
20260506023640 70 248 5.0 10.0 0.00 0.00 0.00 23 1010.7
20260506022648 70 229 7.0 11.0 0.00 0.00 0.00 23 1010.5
20260506021643 70 239 6.0 10.0 0.00 0.00 0.00 23 1010.5
20260506020654 71 247 4.0 8.0 0.00 0.00 0.00 23 1010.3
20260506015650 71 242 4.0 13.0 0.00 0.00 0.00 23 1010.2
20260506014645 71 267 6.0 13.0 0.00 0.00 0.00 23 1010.0
20260506011647 72 261 7.0 14.0 0.00 0.00 0.00 28 1010.7
20260506010636 72 255 7.0 13.0 0.00 0.00 0.00 29 1010.7
20260506005647 72 276 7.0 16.0 0.00 0.00 0.00 28 1010.6
20260506004635 73 242 9.0 13.0 0.00 0.00 0.00 27 1010.5
20260506003651 73 295 5.0 10.0 0.00 0.00 0.00 28 1010.5
20260506002641 73 261 5.0 13.0 0.00 0.00 0.00 27 1010.5
20260506001639 73 252 6.0 13.0 0.00 0.00 0.00 28 1010.5
20260506000653 73 225 8.0 15.0 0.00 0.00 0.00 27 1010.5
20260505234640 74 244 7.0 14.0 0.00 0.00 0.00 27 1010.6
20260505233651 74 259 10.0 19.0 0.00 0.00 0.00 27 1010.6
20260505231649 74 260 11.0 17.0 0.00 0.00 0.00 27 1010.7
20260505230646 74 236 8.0 17.0 0.00 0.00 0.00 28 1010.7
20260505225641 74 244 13.0 19.0 0.00 0.00 0.00 27 1010.9
20260505224650 74 207 12.0 20.0 0.00 0.00 0.00 28 1010.9
20260505223644 75 241 9.0 22.0 0.00 0.00 0.00 28 1011.0
20260505222650 74 246 12.0 17.0 0.00 0.00 0.00 27 1011.1
20260505221638 74 231 8.0 18.0 0.00 0.00 0.00 29 1011.2
20260505220636 73 244 10.0 19.0 0.00 0.00 0.00 28 1011.5
20260505215646 73 257 15.0 22.0 0.00 0.00 0.00 28 1011.6
20260505214641 73 248 14.0 20.0 0.00 0.00 0.00 29 1011.7
20260505213637 73 236 10.0 19.0 0.00 0.00 0.00 32 1011.9
20260505212631 72 200 13.0 18.0 0.00 0.00 0.00 33 1012.1
20260505211643 72 215 10.0 19.0 0.00 0.00 0.00 35 1012.3
20260505210634 71 227 8.0 15.0 0.00 0.00 0.00 36 1012.5
20260505204646 71 217 10.0 24.0 0.00 0.00 0.00 36 1013.0
20260505203643 70 256 11.0 21.0 0.00 0.00 0.00 37 1013.1
20260505202639 69 258 13.0 19.0 0.00 0.00 0.00 38 1013.2
20260505200631 68 242 16.0 23.0 0.00 0.00 0.00 38 1013.3
20260505195632 68 253 13.0 24.0 0.00 0.00 0.00 40 1013.5
20260505194645 68 235 14.0 26.0 0.00 0.00 0.00 39 1013.5
20260505192636 65 263 14.0 26.0 0.00 0.00 0.00 45 1013.8
20260505190646 65 234 16.0 29.0 0.00 0.00 0.00 45 1014.0
20260505185639 65 243 14.0 32.0 0.00 0.00 0.00 42 1014.5
20260505184638 66 257 17.0 27.0 0.00 0.00 0.00 40 1014.6
20260505183644 66 250 17.0 27.0 0.00 0.00 0.00 40 1014.4
20260505182639 66 243 18.0 24.0 0.00 0.00 0.00 39 1014.0
20260505181630 67 256 17.0 24.0 0.00 0.00 0.00 39 1013.9
20260505180643 67 280 17.0 25.0 0.00 0.00 0.00 38 1014.0
20260505174629 69 267 15.0 21.0 0.00 0.00 0.00 35 1014.0
20260505173627 69 248 13.0 19.0 0.00 0.00 0.00 34 1013.7
20260505171636 69 225 5.0 17.0 0.00 0.00 0.00 33 1013.7
20260505170636 70 241 10.0 18.0 0.00 0.00 0.00 32 1013.5
20260505165626 69 252 11.0 19.0 0.00 0.00 0.00 33 1013.5
20260505164640 68 206 8.0 14.0 0.00 0.00 0.00 36 1013.4
20260505162627 67 219 7.0 11.0 0.00 0.00 0.00 37 1013.5
20260505161642 66 238 5.0 10.0 0.00 0.00 0.00 40 1013.3
20260505160631 66 273 3.0 6.0 0.00 0.00 0.00 39 1013.3
20260505152633 64 272 4.0 9.0 0.00 0.00 0.00 43 1013.6
20260505151639 64 261 3.0 10.0 0.00 0.00 0.00 43 1013.6
20260505150632 64 274 4.0 8.0 0.00 0.00 0.00 43 1013.5
20260505124719 58 165 1.0 4.0 0.00 0.00 0.00 55 1013.2